#timestamp,LO_Frequency,Hit,StdDev 
1555772415.2,286046998.6,N
1555772435.1,286047000.8,N
1555772436.0,286047000.8,N
1555772455.8,286046998.8,N
1555772475.7,286046998.2,N
1555772495.5,286046996.8,N
1555772515.3,286046998.2,N
1555772535.2,286046999.4,N
1555772555.0,286046996.9,N
1555772555.9,286046996.9,N
1555772575.7,286046999.6,N
1555772595.6,286046997.7,N
1555772615.4,286046995.2,N
1555772635.3,286046997.4,N
1555772655.1,286046997.5,N
1555772656.0,286046997.5,N
1555772675.8,286046999.5,N
1555772695.7,286046999.6,N
1555772715.5,286046996.7,N
1555772735.4,286046996.9,N
1555772755.2,286046996.5,N
1555772775.0,286046997.1,N
1555772775.9,286046997.1,N
1555772795.8,286046995.8,N
1555772815.6,286046990.6,Y
1555772835.4,286046989.1,P
1555772855.3,286046983.7,P
1555772875.1,286046984.8,N
1555772895.9,286046981.6,Y
1555772915.7,286046989.9,P
1555772935.5,286046985.4,P
1555772955.4,286046985.2,P
1555772975.2,286046982.5,Y
1555772995.1,286046993.6,P
1555772996.0,286046993.6,N
1555773015.8,286046995.6,N
1555773035.6,286046994.2,N
1555773055.5,286046992.5,N
1555773075.3,286046994.8,N
1555773095.1,286046993.3,N
1555773115.9,286046993.6,N
1555773135.7,286046994.8,N
1555773155.6,286046992.4,Y
1555773175.4,286047000.9,P
1555773195.2,286047000.7,N
1555773215.1,286046999.6,N
1555773216.0,286046999.6,N
1555773235.8,286046995.2,N
1555773255.7,286046994.7,N
1555773275.5,286046991.7,N
1555773295.3,286046996.1,N
1555773315.2,286046996.2,N
1555773335.0,286046997.5,N
1555773335.9,286046997.5,N
1555773355.7,286046996.7,N
1555773375.6,286047000.7,N
1555773395.4,286047003.7,N
1555773415.3,286047002.9,N
1555773435.1,286047007.5,N
1555773436.0,286047007.5,N
1555773455.8,286047006.4,N
1555773475.7,286047008.4,N
1555773495.5,286047008.6,N
1555773515.4,286047010.0,N
1555773535.2,286047008.9,N
1555773555.0,286047010.6,N
1555773555.9,286047010.6,N
1555773575.8,286047011.0,N
1555773595.6,286047012.8,N
1555773615.4,286047013.3,N
1555773635.3,286047011.6,N
1555773655.1,286047010.0,N
1555773675.9,286047009.3,N
1555773695.7,286047011.6,N
1555773715.5,286047013.3,N
1555773735.4,286047014.7,N
1555773755.2,286047017.0,N
1555773775.0,286047014.5,N
1555773776.0,286047014.5,N
1555773795.8,286047014.2,N
1555773815.6,286047017.1,N
1555773835.5,286047018.4,Y
1555773855.3,286047007.9,P
1555773875.1,286047008.3,P
1555773895.9,286047007.9,P
1555773915.7,286047006.6,Y
1555773935.6,286047000.5,P
1555773955.4,286047001.7,N
1555773975.2,286047002.6,N
1555773995.1,286047003.5,N
1555773996.0,286047003.5,N
1555774015.8,286047001.7,N
1555774035.7,286047002.8,N
1555774055.5,286047000.4,N
1555774075.3,286046998.2,N
1555774095.2,286046996.6,N
1555774115.0,286046998.2,N
1555774115.9,286046998.2,N
1555774135.7,286047002.5,N
1555774155.6,286047002.6,N
1555774175.4,286047002.6,N
1555774195.3,286047004.4,N
1555774215.1,286047002.6,N
1555774216.0,286047002.6,N
1555774235.8,286047000.2,N
1555774255.7,286046996.8,N
1555774275.5,286046993.3,N
1555774295.3,286046992.1,N
1555774315.2,286046991.4,N
1555774335.0,286046987.3,Y
1555774335.9,286046987.3,P
1555774355.8,286046984.0,N
1555774375.6,286046983.9,N
1555774395.4,286046984.1,N
1555774415.3,286046982.8,N
1555774435.1,286046981.9,N
1555774455.9,286046977.3,Y
1555774475.7,286046993.2,P
1555774495.5,286046992.6,N
1555774515.4,286046994.7,N
1555774535.2,286046995.9,N
1555774555.0,286046996.7,N
1555774555.9,286046996.7,N
1555774575.8,286046998.7,N
1555774595.6,286046999.5,N
1555774615.5,286046998.7,N
1555774635.3,286046999.7,N
1555774655.1,286047003.3,N
1555774675.9,286047004.6,N
1555774695.7,286047004.8,N
1555774715.5,286047004.9,N
1555774735.4,286047007.3,N
1555774755.2,286047006.4,N
1555774775.1,286047009.1,N
1555774776.0,286047009.1,N
1555774795.8,286047007.2,N
1555774815.6,286047007.3,N
1555774835.5,286047008.5,N
1555774855.3,286047008.4,N
1555774875.2,286047010.3,N
1555774895.9,286047010.1,N
1555774915.7,286047009.4,N
1555774935.6,286047009.4,N
1555774955.4,286047009.5,N
1555774975.2,286047011.9,N
1555774995.1,286047011.3,N
1555774996.0,286047011.3,N
1555775015.8,286047011.1,N
1555775035.7,286047013.5,N
1555775055.5,286047015.2,N
1555775075.3,286047014.3,N
1555775095.2,286047016.1,Y
1555775115.0,286047008.2,P
1555775115.9,286047008.2,P
1555775135.8,286047006.7,P
1555775155.6,286047008.6,Y
1555775175.4,286047002.4,P
1555775195.3,286047002.6,N
1555775215.1,286046999.7,N
1555775235.8,286047000.7,N
1555775255.7,286047000.4,N
1555775275.5,286047000.2,N
1555775295.4,286046998.7,N
1555775315.2,286046997.6,N
1555775335.0,286046993.7,N
1555775335.9,286046993.7,N
1555775355.8,286046993.0,N
1555775375.6,286046990.1,N
1555775395.5,286046988.5,N
1555775415.3,286046990.1,N
1555775435.1,286046991.8,N
1555775455.9,286046994.2,N
1555775475.7,286046992.4,N
1555775495.5,286046990.9,N
1555775515.4,286046986.9,N
1555775535.2,286046987.1,N
1555775555.1,286046988.1,N
1555775556.0,286046988.1,N
1555775575.8,286046988.3,N
1555775595.6,286046987.3,N
1555775615.5,286046989.4,N
1555775635.3,286046992.7,N
1555775655.1,286046993.7,N
1555775675.9,286046993.4,N
1555775695.7,286046998.0,N
1555775715.6,286046997.2,N
1555775735.4,286047000.6,N
1555775755.2,286047004.4,N
1555775775.1,286047001.4,N
1555775776.0,286047001.4,N
1555775795.8,286047002.7,N
1555775815.7,286047001.7,N
1555775835.5,286047001.9,N
1555775855.3,286047002.6,N
1555775875.2,286047002.2,N
1555775895.0,286046998.4,N
1555775895.9,286046998.4,N
1555775915.8,286046995.9,N
1555775935.6,286046992.9,N
1555775955.4,286046990.0,N
1555775975.3,286046985.6,N
1555775995.1,286046988.3,N
